Location: Emblem
(62.4273°N, 6.4710°E)
Time: 00:38:19
(UTC+02:00)

UWE-3 - Pass Details

Date: 22 March 2023
Orbit: 577 x 669 km, 97.7° (Epoch: 06 June)

Event Time Altitude Azimuth Distance (km) Brightness Sun altitude
Rises 02:31:49 0° 20° (NNE) 3,040 ? -23.7°
Reaches altitude 10° 02:34:31 10° 35° (NE) 2,116 ? -23.6°
Maximum altitude 02:38:10 23° 87° (E) 1,436 ? -23.4°
Enters shadow 02:41:01 13° 132° (SE) 1,864 ? -23.2°
